User: anonymous   Login
Location: Caltech
(34.1382°N, 118.1253°W)
Time: 03:18:47
(UTC-08:00)
Language:

DELTA 2 R/B (1) - Orbit

View from above orbital plane
View from above orbital plane
View from above satellite
View from above satellite

Ground track
Ground track

The orbit data is extracted from the following two-line orbital elements,

1 27665U 03005C   17057.18346431 -.00000025  00000-0  23921-4 0  9993
2 27665  39.5765 315.4728 0010045 264.6385 227.9655 14.28435368735057
Epoch (UTC): 26 February 2017 04:24:11
Eccentricity: 0.0010045
inclination: 39.5765°
perigee height: 790 km
apogee height: 804 km
right ascension of ascending node: 315.4728°
argument of perigee: 264.6385°
revolutions per day: 14.28435368
mean anomaly at epoch: 227.9655°
orbit number at epoch: 73505

The dashed part of the orbit path shows where the satellite is in the earth's shadow,  

DLR